TimeCST,TemperatureF,Dew PointF,Humidity,Sea Level PressureIn,VisibilityMPH,Wind Direction,Wind SpeedMPH,Gust SpeedMPH,PrecipitationIn,Events,Conditions,WindDirDegrees,DateUTC
12:13 AM,44.6,37.4,76,29.80,10.0,East,19.6,25.3,N/A,,Mostly Cloudy,100,2012-11-10 06:13:00
12:33 AM,44.6,37.4,76,29.79,10.0,ESE,16.1,-,N/A,,Mostly Cloudy,110,2012-11-10 06:33:00
12:53 AM,44.6,37.4,76,29.78,10.0,East,16.1,-,N/A,,Mostly Cloudy,100,2012-11-10 06:53:00
1:13 AM,44.6,37.4,76,29.77,10.0,ESE,18.4,26.5,N/A,,Overcast,110,2012-11-10 07:13:00
1:33 AM,44.6,37.4,76,29.75,10.0,East,16.1,20.7,N/A,,Mostly Cloudy,100,2012-11-10 07:33:00
1:53 AM,44.6,39.2,81,29.74,7.0,East,19.6,24.2,N/A,,Overcast,100,2012-11-10 07:53:00
2:14 AM,44.6,39.2,81,29.74,7.0,East,16.1,24.2,N/A,,Overcast,100,2012-11-10 08:14:00
2:33 AM,44.6,39.2,81,29.73,7.0,East,15.0,20.7,N/A,,Overcast,100,2012-11-10 08:33:00
2:53 AM,44.6,39.2,81,29.72,7.0,East,13.8,18.4,N/A,,Overcast,100,2012-11-10 08:53:00
3:13 AM,44.6,39.2,81,29.71,7.0,East,13.8,19.6,N/A,,Overcast,100,2012-11-10 09:13:00
3:33 AM,44.6,39.2,81,29.70,5.0,East,15.0,19.6,N/A,Rain,Light Rain,100,2012-11-10 09:33:00
3:53 AM,44.6,41.0,87,29.69,4.0,ESE,13.8,-,N/A,,Overcast,110,2012-11-10 09:53:00
4:13 AM,44.6,41.0,87,29.67,3.0,ESE,16.1,21.9,N/A,,Overcast,110,2012-11-10 10:13:00
4:33 AM,44.6,41.0,87,29.66,3.0,ESE,17.3,-,N/A,,Overcast,110,2012-11-10 10:33:00
4:53 AM,44.6,42.8,93,29.66,3.0,ESE,13.8,19.6,N/A,,Overcast,110,2012-11-10 10:53:00
5:13 AM,46.4,42.8,87,29.66,2.5,East,15.0,-,N/A,,Overcast,100,2012-11-10 11:13:00
5:53 AM,46.4,42.8,87,29.65,1.8,East,13.8,18.4,N/A,,Overcast,100,2012-11-10 11:53:00
6:14 AM,44.6,42.8,93,29.64,1.2,East,15.0,-,N/A,Rain,Light Rain,100,2012-11-10 12:14:00
6:34 AM,46.4,44.6,93,29.64,1.2,East,15.0,18.4,N/A,,Overcast,100,2012-11-10 12:34:00
6:53 AM,46.4,44.6,93,29.64,1.5,East,13.8,-,N/A,,Overcast,100,2012-11-10 12:53:00
7:13 AM,46.4,44.6,93,29.62,1.5,ESE,17.3,-,N/A,,Overcast,110,2012-11-10 13:13:00
7:33 AM,46.4,44.6,93,29.61,1.5,East,16.1,-,N/A,,Overcast,100,2012-11-10 13:33:00
7:53 AM,46.4,44.6,93,29.60,1.5,East,15.0,21.9,N/A,,Overcast,100,2012-11-10 13:53:00
8:13 AM,46.4,44.6,93,29.59,1.5,ESE,16.1,21.9,N/A,,Overcast,110,2012-11-10 14:13:00
8:34 AM,46.4,44.6,93,29.58,1.8,East,13.8,-,N/A,,Overcast,100,2012-11-10 14:34:00
8:53 AM,46.4,44.6,93,29.56,1.2,East,15.0,21.9,N/A,,Overcast,100,2012-11-10 14:53:00
9:14 AM,48.2,46.4,93,29.57,1.2,ESE,11.5,-,N/A,,Overcast,110,2012-11-10 15:14:00
9:33 AM,48.2,46.4,93,29.55,1.2,ESE,12.7,19.6,N/A,,Overcast,110,2012-11-10 15:33:00
9:53 AM,48.2,46.4,93,29.54,1.2,ESE,12.7,19.6,N/A,,Overcast,110,2012-11-10 15:53:00
10:13 AM,48.2,46.4,93,29.54,1.2,ESE,12.7,17.3,N/A,,Overcast,110,2012-11-10 16:13:00
10:33 AM,48.2,46.4,93,29.52,1.2,ESE,11.5,-,N/A,,Overcast,110,2012-11-10 16:33:00
10:54 AM,50.0,46.4,87,29.52,1.5,ESE,11.5,17.3,N/A,,Overcast,110,2012-11-10 16:54:00
11:13 AM,51.8,48.2,88,29.52,1.8,ESE,10.4,-,N/A,,Overcast,120,2012-11-10 17:13:00
11:33 AM,51.8,48.2,88,29.51,1.8,ESE,9.2,-,N/A,,Overcast,110,2012-11-10 17:33:00
11:53 AM,51.8,48.2,88,29.49,2.0,ESE,10.4,-,N/A,,Overcast,110,2012-11-10 17:53:00
12:13 PM,53.6,48.2,82,29.49,2.0,ESE,6.9,-,N/A,,Overcast,110,2012-11-10 18:13:00
12:34 PM,53.6,50.0,88,29.48,2.5,ESE,8.1,-,N/A,,Overcast,120,2012-11-10 18:34:00
12:54 PM,55.4,50.0,82,29.47,3.0,ESE,9.2,-,N/A,,Haze,110,2012-11-10 18:54:00
1:13 PM,55.4,51.8,88,29.45,3.0,ESE,11.5,-,N/A,,Haze,110,2012-11-10 19:13:00
1:33 PM,57.2,51.8,82,29.44,4.0,ESE,9.2,-,N/A,,Haze,110,2012-11-10 19:33:00
1:54 PM,57.2,51.8,82,29.45,5.0,SE,6.9,-,N/A,,Haze,130,2012-11-10 19:54:00
2:14 PM,60.8,53.6,77,29.44,7.0,SE,8.1,-,N/A,,Overcast,140,2012-11-10 20:14:00
2:34 PM,60.8,53.6,77,29.43,7.0,SE,4.6,-,N/A,,Overcast,140,2012-11-10 20:34:00
2:53 PM,60.8,53.6,77,29.43,7.0,SSW,5.8,-,N/A,,Overcast,200,2012-11-10 20:53:00
3:13 PM,62.6,51.8,68,29.42,10.0,SSW,3.5,-,N/A,,Overcast,210,2012-11-10 21:13:00
3:34 PM,60.8,53.6,77,29.44,10.0,WSW,8.1,-,N/A,,Overcast,250,2012-11-10 21:34:00
3:53 PM,59.0,51.8,77,29.44,7.0,WSW,8.1,-,N/A,,Overcast,240,2012-11-10 21:53:00
4:14 PM,57.2,51.8,82,29.46,4.0,SW,9.2,-,N/A,,Haze,230,2012-11-10 22:14:00
4:33 PM,55.4,50.0,82,29.47,3.0,SW,9.2,-,N/A,,Haze,230,2012-11-10 22:33:00
4:53 PM,55.4,50.0,82,29.48,5.0,SSW,10.4,16.1,N/A,,Haze,210,2012-11-10 22:53:00
5:13 PM,55.4,48.2,77,29.48,10.0,SSW,11.5,-,N/A,,Overcast,210,2012-11-10 23:13:00
5:33 PM,53.6,48.2,82,29.47,10.0,SW,6.9,-,N/A,,Scattered Clouds,220,2012-11-10 23:33:00
5:54 PM,51.8,46.4,82,29.45,10.0,SW,4.6,-,N/A,,Clear,220,2012-11-10 23:54:00
6:13 PM,51.8,46.4,82,29.44,10.0,WSW,4.6,-,N/A,,Scattered Clouds,240,2012-11-11 00:13:00
6:34 PM,51.8,48.2,88,29.45,10.0,SW,5.8,-,N/A,,Mostly Cloudy,220,2012-11-11 00:34:00
6:53 PM,51.8,48.2,88,29.45,7.0,West,6.9,-,N/A,Thunderstorm,Mostly Cloudy,270,2012-11-11 00:53:00
7:13 PM,51.8,48.2,88,29.45,3.0,WSW,3.5,-,0.01,Rain-Thunderstorm,Light Thunderstorms and Rain,240,2012-11-11 01:13:00
7:34 PM,51.8,48.2,88,29.50,2.5,WSW,13.8,25.3,0.06,Rain-Thunderstorm,Heavy Thunderstorms and Rain,250,2012-11-11 01:34:00
7:53 PM,50.0,46.4,87,29.43,1.5,Calm,Calm,-,0.16,Rain-Thunderstorm,Heavy Thunderstorms and Rain,0,2012-11-11 01:53:00
8:13 PM,50.0,48.2,94,29.48,2.0,SW,9.2,-,0.03,Rain,Light Rain,220,2012-11-11 02:13:00
8:33 PM,48.2,46.4,93,29.47,2.5,West,9.2,-,0.03,Rain,Light Rain,270,2012-11-11 02:33:00
8:53 PM,48.2,46.4,93,29.49,4.0,West,13.8,-,0.03,,Overcast,280,2012-11-11 02:53:00
9:14 PM,44.6,42.8,93,29.50,3.0,West,15.0,21.9,N/A,Rain,Light Rain,280,2012-11-11 03:14:00
9:33 PM,42.8,41.0,93,29.51,4.0,WNW,15.0,-,0.01,,Overcast,290,2012-11-11 03:33:00
10:13 PM,41.0,39.2,93,29.51,7.0,WNW,20.7,26.5,N/A,,Overcast,300,2012-11-11 04:13:00
10:33 PM,39.2,37.4,93,29.53,10.0,WNW,21.9,29.9,N/A,,Overcast,300,2012-11-11 04:33:00
10:53 PM,37.4,35.6,93,29.55,7.0,WNW,21.9,28.8,N/A,,Overcast,300,2012-11-11 04:53:00
11:13 PM,37.4,35.6,93,29.57,10.0,NW,20.7,24.2,N/A,,Overcast,310,2012-11-11 05:13:00
11:34 PM,35.6,33.8,93,29.57,10.0,WNW,16.1,25.3,N/A,,Overcast,300,2012-11-11 05:34:00
11:54 PM,35.6,33.8,93,29.58,10.0,NW,18.4,25.3,N/A,,Overcast,310,2012-11-11 05:54:00